Helicity
202 205 198 202 206 169 164 141 111 76 64 61 60 56 58 55 54 56 55 51 44 43 41 36 41 41 45 40 41 36 49 53 51 58 102 91 80 161 118 106 73 66 56
231 214 214 199 169 160 156 126 104 79 70 67 60 54 48 43 47 50 54 59 63 56 48 44 39 40 42 52 52 44 40 46 34 31 47 81 82 79 64 92 69 32 12
180 175 176 167 164 158 125 109 93 83 74 65 56 59 60 58 56 48 47 50 61 72 69 54 46 45 44 45 47 48 50 51 43 40 32 41 53 13 43 34 18 16 24
129 128 149 149 139 123 108 102 85 81 79 78 82 67 58 58 47 44 43 52 64 66 63 58 53 50 47 52 49 52 48 53 50 48 39 38 37 14 18 23 -2 17 57
83 87 95 102 92 103 97 88 94 96 86 82 72 68 69 56 46 49 54 59 64 66 61 54 50 48 43 40 44 45 43 45 49 46 46 41 23 35 19 33 25 53 85
51 73 74 97 96 89 92 91 90 83 80 85 87 89 77 62 66 65 67 62 59 55 54 46 42 36 34 33 34 32 37 41 39 40 40 34 16 -3 4 15 9 17 70
96 100 109 89 78 78 79 82 82 84 88 90 85 76 72 79 80 73 64 63 58 49 41 35 36 30 27 28 32 34 32 34 39 40 38 38 26 25 10 11 4 15 30
87 90 69 73 79 79 85 88 92 98 100 97 85 82 91 96 88 80 71 59 53 39 31 34 34 32 32 35 41 43 45 45 42 38 38 39 31 32 29 18 9 10 29
63 57 51 56 64 75 81 92 101 104 100 93 97 101 107 107 91 78 71 66 60 55 53 44 40 38 39 41 43 45 47 54 55 55 56 53 53 53 47 45 41 26 26
88 84 66 65 78 101 121 118 113 104 103 101 110 113 113 107 97 88 76 72 67 62 59 53 50 48 47 50 56 58 61 69 69 71 76 73 70 71 67 62 63 66 57
83 57 62 61 71 115 143 132 122 118 117 117 122 126 122 114 103 95 86 80 77 64 53 50 51 52 55 60 67 71 74 85 81 76 82 85 84 89 89 86 81 73 78
161 117 68 54 63 105 117 132 123 117 109 112 130 128 130 124 112 103 94 90 77 60 45 45 49 52 55 64 76 83 88 92 96 97 98 88 89 95 95 98 98 95 89
199 163 181 165 103 96 91 122 107 86 87 104 120 130 130 125 116 113 105 94 81 59 52 57 58 62 69 85 104 103 96 100 96 95 99 104 111 118 118 110 107 105 101
198 226 275 272 231 130 96 130 108 98 93 101 115 119 119 118 115 109 100 93 88 73 67 69 72 76 86 99 112 113 101 96 102 108 110 111 118 118 122 121 112 108 114
233 246 259 260 295 319 242 145 117 112 103 102 89 84 93 96 100 101 97 98 103 100 93 98 102 100 102 118 119 114 112 113 120 122 125 128 122 107 102 124 119 112 122
225 191 209 223 260 242 274 270 245 218 169 136 114 114 108 105 102 102 112 126 142 137 150 151 136 128 134 117 111 117 126 126 128 139 126 122 112 115 102 99 90 89 130
195 199 191 164 170 192 199 216 201 186 184 171 169 160 139 130 126 134 150 159 171 178 166 160 156 146 156 116 115 113 139 139 129 132 128 122 117 104 112 105 100 99 81
171 160 156 199 227 174 158 125 124 139 162 182 191 191 183 169 175 187 175 155 152 153 152 153 146 155 135 94 93 96 127 145 139 127 126 137 125 114 110 130 139 127 116
77 126 110 122 168 184 112 107 130 145 163 173 172 170 147 178 177 174 158 151 157 171 182 183 179 176 167 102 88 104 134 139 139 126 123 131 131 91 91 116 112 120 110
140 122 136 108 110 101 102 139 149 138 136 129 121 132 145 150 162 171 177 183 183 190 190 183 173 143 150 106 98 111 135 136 132 123 120 79 93 66 67 101 102 110 93
187 154 137 122 98 97 96 88 83 90 89 96 108 120 131 149 152 170 191 184 175 162 152 149 146 152 145 133 75 75 117 142 134 131 123 120 66 53 50 55 103 109 87
145 123 116 97 70 64 74 72 79 88 102 115 129 138 142 157 152 150 133 135 151 145 129 134 143 128 118 73 71 69 88 102 133 136 126 113 68 73 74 90 83 65 72
123 98 92 88 85 85 87 84 92 117 120 139 135 140 128 121 126 135 129 138 118 133 134 128 138 132 107 108 60 60 69 77 98 112 84 58 80 89 103 94 85 80 114
84 95 98 109 127 120 124 135 127 127 132 139 133 124 131 113 116 134 138 141 125 125 130 133 138 131 120 109 108 102 89 72 88 94 117 96 63 44 56 57 67 99 138
106 114 119 130 154 163 167 165 142 138 132 132 138 133 136 132 122 123 129 125 125 142 146 150 150 135 119 105 70 72 90 103 92 75 102 111 127 122 115 97 100 101 104
99 114 119 145 171 191 193 168 150 141 133 133 135 132 127 130 131 123 110 83 82 75 69 70 91 114 88 60 58 55 64 64 61 99 113 110 120 116 82 75 71 65 57
Wind_Speed
23 22 21 19 20 24 25 28 30 33 33 32 33 35 39 40 42 44 46 49 50 52 54 56 57 57 57 57 56 54 56 56 64 55 52 43 33 43 41 43 44 50 54
18 19 20 21 24 24 25 27 29 30 31 32 33 34 36 38 39 44 48 49 51 52 53 56 58 57 57 57 57 56 55 51 57 53 46 50 44 47 47 51 50 54 58
11 16 18 22 23 23 24 26 26 27 30 30 31 34 36 37 42 44 47 51 53 53 55 58 57 57 55 55 54 53 53 53 51 51 45 48 48 60 49 51 53 59 63
16 18 21 21 20 22 22 23 23 25 28 31 34 35 36 39 41 43 45 50 53 54 57 57 56 55 54 54 52 51 50 49 53 47 48 44 44 52 58 53 62 61 64
14 17 17 17 19 20 20 22 23 25 27 31 32 35 38 39 41 44 48 51 52 54 56 56 56 55 54 54 52 52 51 49 46 47 49 49 52 45 53 65 64 66 62
16 18 18 18 20 21 21 21 23 25 27 31 34 36 38 38 40 44 48 51 52 53 55 56 56 55 55 54 54 53 52 49 47 47 46 48 51 57 55 61 65 66 63
17 18 18 18 20 20 20 21 22 25 28 30 32 33 34 36 39 43 47 50 52 52 55 55 56 55 54 54 55 55 55 53 52 51 51 50 52 54 57 60 63 59 62
20 19 17 20 22 20 20 21 21 24 27 30 32 33 34 37 40 42 44 47 48 50 50 52 53 55 55 55 56 55 55 55 55 55 53 53 54 53 54 57 61 65 56
20 21 24 25 23 23 22 21 24 28 30 33 34 36 36 38 40 41 42 45 48 51 51 52 53 55 55 55 55 54 54 54 54 54 54 54 55 56 56 56 55 57 62
30 28 27 25 23 22 23 25 28 32 33 34 35 35 36 37 40 43 46 48 52 53 54 55 55 55 55 56 57 57 55 57 55 54 56 56 55 58 57 58 56 55 58
36 34 30 27 28 28 28 27 27 30 34 35 37 38 40 41 43 45 48 50 52 54 56 57 58 59 60 60 60 61 59 61 61 59 59 59 57 59 59 58 57 58 57
48 53 45 42 36 30 26 25 27 32 36 38 39 41 42 44 47 49 51 52 55 55 57 58 59 60 61 61 63 66 65 66 68 67 65 64 62 61 59 58 59 60 60
53 55 56 56 48 37 34 32 33 36 39 39 41 44 47 49 51 54 56 57 59 60 61 62 64 66 67 68 67 68 68 67 68 68 69 69 67 67 64 62 62 61 61
56 59 61 60 59 51 42 39 40 41 42 43 46 50 52 53 56 57 60 62 62 65 67 69 70 70 72 72 73 72 71 70 70 69 68 69 69 70 68 67 66 65 66
57 59 60 62 62 62 57 49 47 46 45 46 50 52 53 56 59 62 64 66 69 72 74 75 75 75 76 75 75 74 74 74 76 74 72 71 70 72 70 71 72 69 70
55 57 60 62 65 64 63 59 56 56 54 55 57 58 59 62 65 67 69 71 74 77 77 79 80 82 78 74 75 74 75 76 76 80 78 74 75 74 73 73 71 68 74
53 55 58 61 64 64 64 65 64 62 62 63 66 70 72 74 74 74 75 77 80 78 82 82 81 81 77 74 75 75 75 78 78 79 80 80 76 75 75 77 75 73 70
54 58 62 64 66 65 66 66 67 68 71 74 76 78 80 79 77 76 77 77 77 81 82 80 78 78 77 77 78 80 80 80 81 82 81 79 81 79 76 77 79 78 75
54 58 61 64 65 67 68 71 74 75 79 83 84 82 81 85 83 83 82 79 78 80 81 78 81 82 83 86 87 86 84 86 87 86 84 82 83 83 80 81 84 86 86
57 62 63 64 68 70 71 77 81 83 86 87 88 82 83 83 84 81 81 79 79 84 85 87 86 86 88 91 92 91 88 91 91 89 87 84 82 82 81 82 84 89 89
62 63 65 68 70 72 76 81 84 89 87 87 88 88 86 85 85 84 81 83 86 87 90 92 91 91 90 91 90 90 85 84 88 86 87 84 83 81 80 80 82 85 84
64 64 68 72 73 75 81 88 92 91 90 89 90 89 87 85 85 86 88 89 89 91 94 92 91 88 87 86 85 84 83 82 83 85 83 84 87 87 87 87 85 83 84
69 70 75 79 79 80 82 91 93 92 94 92 91 90 89 88 85 86 87 87 87 86 87 85 84 85 82 82 82 83 84 84 81 80 83 85 87 84 84 84 83 82 80
78 80 83 86 87 83 84 86 91 93 93 93 92 90 88 86 81 79 77 78 81 82 82 81 80 80 80 80 78 79 80 80 79 80 81 80 79 79 81 83 80 77 75
83 84 88 90 88 86 86 88 91 89 92 91 88 86 81 81 83 80 78 77 76 75 79 76 74 78 81 79 77 76 76 75 75 77 76 77 75 76 76 76 75 75 74
89 89 88 88 88 85 89 91 89 86 87 86 82 79 79 80 80 81 84 75 73 78 76 73 72 73 70 75 78 81 81 81 79 76 74 73 71 72 74 74 74 71 71
Wind_Direction
332 344 351 358 358 354 355 355 357 359 4 7 6 4 3 7 8 7 5 1 359 356 353 350 347 346 345 345 347 347 346 345 340 341 336 343 342 332 324 316 323 322 323
334 341 348 349 346 349 353 357 360 2 4 5 6 6 5 6 9 7 3 3 1 358 356 353 350 349 347 345 346 347 346 347 345 343 341 329 327 313 312 308 314 315 318
336 339 341 340 344 348 352 354 0 2 3 5 6 5 5 4 1 2 0 357 356 358 355 352 352 352 352 350 351 351 351 349 348 345 345 331 320 306 304 304 309 311 312
334 333 332 338 345 348 355 358 1 1 3 3 360 359 359 357 359 359 359 356 356 356 354 355 355 355 356 354 355 355 354 353 344 349 340 340 331 309 296 300 300 307 309
334 335 338 342 345 349 351 353 356 357 358 356 357 356 355 356 357 356 354 354 356 356 356 356 356 355 355 354 355 353 351 352 353 348 342 333 321 322 310 295 300 306 312
336 340 343 345 345 346 346 348 349 350 353 352 352 353 353 354 355 354 353 353 354 355 356 356 357 357 355 353 353 350 349 351 351 347 344 335 322 307 310 309 310 312 313
338 340 341 341 341 342 343 343 343 344 346 348 350 351 352 353 352 351 351 351 351 353 353 354 354 354 354 353 350 346 343 344 343 341 337 333 324 319 312 311 312 320 319
336 339 339 336 333 334 334 334 335 336 341 342 342 344 345 345 346 347 349 350 351 352 353 353 353 351 350 349 348 346 343 338 336 333 333 331 326 323 319 316 314 314 323
338 337 333 332 333 330 329 330 330 331 332 333 334 336 338 340 342 344 346 346 347 346 348 348 347 346 345 345 346 346 345 343 340 337 334 331 328 325 322 320 319 317 316
331 334 333 332 332 327 323 321 321 322 325 328 331 332 334 336 337 337 337 338 339 339 340 340 340 341 341 341 340 339 338 337 338 337 333 331 329 325 322 319 318 318 314
327 327 327 327 327 323 318 317 318 320 322 324 325 326 327 328 330 331 332 333 334 335 334 334 334 333 333 333 332 332 331 330 329 329 328 327 327 324 322 320 318 314 313
333 329 323 321 321 322 321 317 318 318 320 320 320 321 322 322 323 324 326 327 327 329 329 329 329 329 329 328 327 325 325 323 321 321 321 321 322 321 321 320 317 315 313
333 335 335 329 320 313 313 314 317 318 321 321 317 317 317 318 318 320 321 322 323 324 325 325 324 323 322 322 322 321 320 319 318 317 316 315 316 315 315 315 314 314 313
334 333 333 334 333 325 311 307 310 314 317 318 318 315 314 315 317 318 318 318 319 319 319 319 319 319 319 318 317 316 315 315 315 315 314 313 312 310 311 311 311 311 310
331 333 334 334 336 335 330 319 313 313 314 314 316 316 316 316 315 315 315 315 315 315 316 316 316 316 316 316 315 314 312 311 311 311 311 311 310 309 307 306 306 306 306
331 333 334 336 336 336 335 333 327 321 319 316 316 317 317 316 314 313 312 312 312 313 313 313 313 313 314 314 313 312 310 310 309 308 308 308 308 308 306 304 303 303 301
330 331 332 332 332 334 333 330 329 327 324 321 319 317 315 313 312 312 311 311 310 311 311 311 312 311 312 312 311 310 308 307 306 305 305 305 305 305 304 302 301 301 300
328 328 328 329 330 329 329 328 326 324 321 319 317 316 316 315 314 313 312 312 311 311 311 311 311 310 310 310 310 308 307 305 303 303 302 302 302 302 302 301 299 298 297
326 326 326 326 327 327 327 325 322 322 319 317 316 318 317 314 314 312 312 312 311 311 311 311 310 308 308 306 306 305 304 302 301 300 299 299 299 299 299 298 297 296 294
324 324 325 326 326 326 326 323 322 321 319 318 316 318 316 315 314 312 312 312 311 311 311 309 308 307 305 304 304 303 302 300 298 298 298 298 298 298 298 297 296 294 294
323 324 325 324 325 325 325 322 321 320 319 319 317 316 315 314 313 311 310 309 309 308 308 307 306 305 304 304 303 302 301 300 299 298 298 298 299 299 298 297 296 295 296
322 322 322 322 323 324 324 322 321 322 321 319 318 317 316 315 314 312 310 309 308 307 307 307 306 306 305 304 304 303 302 301 300 298 298 298 298 298 297 297 296 295 295
320 320 319 318 319 321 322 321 321 323 321 319 318 317 316 315 313 312 311 311 310 309 308 307 306 307 307 307 305 303 302 301 300 300 300 300 299 298 298 297 297 296 295
318 318 317 316 316 318 319 321 322 322 321 319 318 318 317 317 317 316 315 313 313 311 310 309 308 308 308 308 307 306 305 303 302 301 301 300 300 299 298 298 297 296 296
319 319 317 316 315 317 318 321 322 321 320 319 319 319 319 318 317 316 315 314 313 313 311 310 309 309 308 308 308 307 306 305 303 303 301 300 300 299 300 300 298 298 297
319 319 319 318 316 317 318 320 321 321 320 319 320 320 319 319 319 318 317 316 314 313 312 310 309 309 309 309 308 307 306 304 303 302 300 299 299 300 301 300 300 300 299